Time,TemperatureF,DewpointF,PressureIn,WindDirection,WindDirectionDegrees,WindSpeedMPH,WindSpeedGustMPH,Humidity,HourlyPrecipIn,Conditions,Clouds,dailyrainin,SoftwareType,DateUTC
2013-05-15 00:01:00,73.7,59.9,29.82,ESE,113,1.0,6.0,62,0.00,,---,0.00,VWS V14.01,2013-05-15 05:01:00,
2013-05-15 00:06:00,73.7,59.9,29.82,SSW,211,0.0,4.0,62,0.00,,---,0.00,VWS V14.01,2013-05-15 05:06:00,
2013-05-15 00:11:00,73.5,59.7,29.82,SW,222,1.0,4.0,62,0.00,,---,0.00,VWS V14.01,2013-05-15 05:11:00,
2013-05-15 00:16:00,73.4,59.6,29.82,SW,220,1.0,4.0,62,0.00,,---,0.00,VWS V14.01,2013-05-15 05:16:00,
2013-05-15 00:21:00,73.3,59.5,29.82,SW,223,0.0,4.0,62,0.00,,---,0.00,VWS V14.01,2013-05-15 05:21:00,
2013-05-15 00:26:00,73.2,59.4,29.82,SW,219,3.0,5.0,62,0.00,,---,0.00,VWS V14.01,2013-05-15 05:26:00,
2013-05-15 00:31:00,73.2,59.4,29.83,SW,219,1.0,5.0,62,0.00,,---,0.00,VWS V14.01,2013-05-15 05:31:00,
2013-05-15 00:36:00,73.1,59.3,29.83,South,189,0.0,4.0,62,0.00,,---,0.00,VWS V14.01,2013-05-15 05:36:00,
2013-05-15 00:41:00,72.9,59.1,29.83,SW,236,0.0,4.0,62,0.00,,---,0.00,VWS V14.01,2013-05-15 05:41:00,
2013-05-15 00:46:00,72.8,59.5,29.83,SE,145,2.0,4.0,63,0.00,,---,0.00,VWS V14.01,2013-05-15 05:46:00,
2013-05-15 00:51:00,72.7,59.4,29.83,SSW,208,1.0,6.0,63,0.00,,---,0.00,VWS V14.01,2013-05-15 05:51:00,
2013-05-15 00:56:00,72.6,59.3,29.83,SW,225,0.0,6.0,63,0.00,,---,0.00,VWS V14.01,2013-05-15 05:56:00,
2013-05-15 01:01:00,72.6,59.3,29.83,SSW,200,3.0,6.0,63,0.00,,---,0.00,VWS V14.01,2013-05-15 06:01:00,
2013-05-15 01:06:00,72.5,59.2,29.83,SSW,209,0.0,5.0,63,0.00,,---,0.00,VWS V14.01,2013-05-15 06:06:00,
2013-05-15 01:11:00,72.4,59.1,29.83,SSW,202,0.0,5.0,63,0.00,,---,0.00,VWS V14.01,2013-05-15 06:11:00,
2013-05-15 01:17:00,72.4,59.1,29.83,SSW,197,0.0,5.0,63,0.00,,---,0.00,VWS V14.01,2013-05-15 06:17:00,
2013-05-15 01:22:00,72.3,59.0,29.83,SW,234,0.0,5.0,63,0.00,,---,0.00,VWS V14.01,2013-05-15 06:22:00,
2013-05-15 01:27:00,72.2,58.9,29.83,SSW,205,0.0,5.0,63,0.00,,---,0.00,VWS V14.01,2013-05-15 06:27:00,
2013-05-15 01:32:00,72.1,58.8,29.83,SSW,206,0.0,0.0,63,0.00,,---,0.00,VWS V14.01,2013-05-15 06:32:00,
2013-05-15 01:37:00,72.0,58.7,29.83,SW,229,0.0,2.0,63,0.00,,---,0.00,VWS V14.01,2013-05-15 06:37:00,
2013-05-15 01:42:00,71.9,58.6,29.83,SSW,213,1.0,5.0,63,0.00,,---,0.00,VWS V14.01,2013-05-15 06:42:00,
2013-05-15 01:47:00,71.8,59.0,29.84,SW,223,0.0,5.0,64,0.00,,---,0.00,VWS V14.01,2013-05-15 06:47:00,
2013-05-15 01:52:00,71.7,58.9,29.84,SSW,193,3.0,9.0,64,0.00,,---,0.00,VWS V14.01,2013-05-15 06:52:00,
2013-05-15 01:57:00,71.7,58.9,29.84,West,263,0.0,9.0,64,0.00,,---,0.00,VWS V14.01,2013-05-15 06:57:00,
2013-05-15 02:02:00,71.5,58.7,29.84,SSW,209,1.0,1.0,64,0.00,,---,0.00,VWS V14.01,2013-05-15 07:02:00,
2013-05-15 02:07:00,71.3,58.5,29.84,SSW,195,0.0,4.0,64,0.00,,---,0.00,VWS V14.01,2013-05-15 07:07:00,
2013-05-15 02:12:00,71.2,58.4,29.84,SSW,199,0.0,4.0,64,0.00,,---,0.00,VWS V14.01,2013-05-15 07:12:00,
2013-05-15 02:17:00,71.0,58.7,29.84,SW,236,0.0,4.0,65,0.00,,---,0.00,VWS V14.01,2013-05-15 07:17:00,
2013-05-15 02:22:00,71.0,58.7,29.84,SSW,210,0.0,4.0,65,0.00,,---,0.00,VWS V14.01,2013-05-15 07:22:00,
2013-05-15 02:27:00,70.8,58.5,29.84,SSW,209,0.0,4.0,65,0.00,,---,0.00,VWS V14.01,2013-05-15 07:27:00,
2013-05-15 02:32:00,70.6,58.3,29.85,SSW,209,0.0,0.0,65,0.00,,---,0.00,VWS V14.01,2013-05-15 07:32:00,
2013-05-15 02:37:00,70.4,58.1,29.85,SSW,201,0.0,2.0,65,0.00,,---,0.00,VWS V14.01,2013-05-15 07:37:00,
2013-05-15 02:42:00,70.4,58.1,29.85,SW,217,0.0,2.0,65,0.00,,---,0.00,VWS V14.01,2013-05-15 07:42:00,
2013-05-15 02:47:00,70.3,58.0,29.85,SW,216,0.0,2.0,65,0.00,,---,0.00,VWS V14.01,2013-05-15 07:47:00,
2013-05-15 02:52:00,70.2,57.9,29.85,SW,218,0.0,2.0,65,0.00,,---,0.00,VWS V14.01,2013-05-15 07:52:00,
2013-05-15 02:57:00,70.0,58.1,29.85,SW,218,0.0,2.0,66,0.00,,---,0.00,VWS V14.01,2013-05-15 07:57:00,
2013-05-15 03:02:00,69.8,57.9,29.85,SW,214,0.0,0.0,66,0.00,,---,0.00,VWS V14.01,2013-05-15 08:02:00,
2013-05-15 03:07:00,69.7,57.8,29.85,South,175,0.0,2.0,66,0.00,,---,0.00,VWS V14.01,2013-05-15 08:07:00,
2013-05-15 03:12:00,69.5,57.7,29.85,SSW,194,0.0,2.0,66,0.00,,---,0.00,VWS V14.01,2013-05-15 08:12:00,
2013-05-15 03:17:00,69.3,57.9,29.85,SSW,195,0.0,2.0,67,0.00,,---,0.00,VWS V14.01,2013-05-15 08:17:00,
2013-05-15 03:22:00,69.1,57.7,29.85,SSW,195,0.0,2.0,67,0.00,,---,0.00,VWS V14.01,2013-05-15 08:22:00,
2013-05-15 03:27:00,68.8,57.4,29.85,SSW,195,0.0,2.0,67,0.00,,---,0.00,VWS V14.01,2013-05-15 08:27:00,
2013-05-15 03:32:00,68.5,57.5,29.85,SSW,195,0.0,0.0,68,0.00,,---,0.00,VWS V14.01,2013-05-15 08:32:00,
2013-05-15 03:37:00,68.3,57.3,29.85,SSW,195,0.0,0.0,68,0.00,,---,0.00,VWS V14.01,2013-05-15 08:37:00,
2013-05-15 03:42:00,68.0,57.5,29.85,SSW,195,0.0,1.0,69,0.00,,---,0.00,VWS V14.01,2013-05-15 08:42:00,
2013-05-15 03:47:00,67.9,57.4,29.85,SSW,195,0.0,1.0,69,0.00,,---,0.00,VWS V14.01,2013-05-15 08:47:00,
2013-05-15 03:52:00,67.7,57.2,29.85,SSW,195,0.0,1.0,69,0.00,,---,0.00,VWS V14.01,2013-05-15 08:52:00,
2013-05-15 03:57:00,67.5,57.0,29.85,SSW,195,0.0,1.0,69,0.00,,---,0.00,VWS V14.01,2013-05-15 08:57:00,
2013-05-15 04:02:00,67.3,57.2,29.86,SSW,195,0.0,0.0,70,0.00,,---,0.00,VWS V14.01,2013-05-15 09:02:00,
2013-05-15 04:07:00,67.2,57.1,29.86,West,266,0.0,1.0,70,0.00,,---,0.00,VWS V14.01,2013-05-15 09:07:00,
2013-05-15 04:12:00,67.1,57.0,29.86,West,266,0.0,1.0,70,0.00,,---,0.00,VWS V14.01,2013-05-15 09:12:00,
2013-05-15 04:17:00,67.0,56.9,29.87,West,266,0.0,1.0,70,0.00,,---,0.00,VWS V14.01,2013-05-15 09:17:00,
2013-05-15 04:22:00,66.8,56.7,29.87,West,267,0.0,1.0,70,0.00,,---,0.00,VWS V14.01,2013-05-15 09:22:00,
2013-05-15 04:27:00,66.7,56.6,29.87,West,266,0.0,1.0,70,0.00,,---,0.00,VWS V14.01,2013-05-15 09:27:00,
2013-05-15 04:32:00,66.7,56.6,29.87,SSW,207,0.0,0.0,70,0.00,,---,0.00,VWS V14.01,2013-05-15 09:32:00,
2013-05-15 04:37:00,66.6,56.5,29.87,South,186,1.0,1.0,70,0.00,,---,0.00,VWS V14.01,2013-05-15 09:37:00,
2013-05-15 04:42:00,66.7,56.6,29.87,SSW,194,0.0,2.0,70,0.00,,---,0.00,VWS V14.01,2013-05-15 09:42:00,
2013-05-15 04:47:00,66.8,56.7,29.87,SSW,194,0.0,2.0,70,0.00,,---,0.00,VWS V14.01,2013-05-15 09:47:00,
2013-05-15 04:52:00,66.7,56.6,29.87,SSW,195,0.0,2.0,70,0.00,,---,0.00,VWS V14.01,2013-05-15 09:52:00,
2013-05-15 04:57:00,66.7,56.6,29.87,SSW,196,0.0,2.0,70,0.00,,---,0.00,VWS V14.01,2013-05-15 09:57:00,
2013-05-15 05:02:00,66.6,56.5,29.88,SSW,197,0.0,1.0,70,0.00,,---,0.00,VWS V14.01,2013-05-15 10:02:00,
2013-05-15 05:07:00,66.6,56.5,29.88,SW,227,0.0,2.0,70,0.00,,---,0.00,VWS V14.01,2013-05-15 10:07:00,
2013-05-15 05:12:00,66.6,56.5,29.88,SSW,209,0.0,2.0,70,0.00,,---,0.00,VWS V14.01,2013-05-15 10:12:00,
2013-05-15 05:17:00,66.5,56.4,29.88,South,186,0.0,2.0,70,0.00,,---,0.00,VWS V14.01,2013-05-15 10:17:00,
2013-05-15 05:22:00,66.4,56.3,29.88,South,186,0.0,2.0,70,0.00,,---,0.00,VWS V14.01,2013-05-15 10:22:00,
2013-05-15 05:27:00,66.4,56.3,29.88,South,190,0.0,2.0,70,0.00,,---,0.00,VWS V14.01,2013-05-15 10:27:00,
2013-05-15 05:32:00,66.3,56.2,29.89,South,190,0.0,0.0,70,0.00,,---,0.00,VWS V14.01,2013-05-15 10:32:00,
2013-05-15 05:37:00,66.2,56.1,29.89,South,190,0.0,1.0,70,0.00,,---,0.00,VWS V14.01,2013-05-15 10:37:00,
2013-05-15 05:42:00,66.1,56.0,29.89,West,276,0.0,1.0,70,0.00,,---,0.00,VWS V14.01,2013-05-15 10:42:00,
2013-05-15 05:47:00,66.0,56.0,29.89,West,271,0.0,1.0,70,0.00,,---,0.00,VWS V14.01,2013-05-15 10:47:00,
2013-05-15 05:52:00,65.9,55.8,29.89,West,271,0.0,1.0,70,0.00,,---,0.00,VWS V14.01,2013-05-15 10:52:00,
2013-05-15 05:57:00,65.8,56.2,29.89,West,271,0.0,1.0,71,0.00,,---,0.00,VWS V14.01,2013-05-15 10:57:00,
2013-05-15 06:02:00,65.6,56.0,29.89,West,271,0.0,0.0,71,0.00,,---,0.00,VWS V14.01,2013-05-15 11:02:00,
2013-05-15 06:07:00,65.6,56.0,29.89,West,271,0.0,0.0,71,0.00,,---,0.00,VWS V14.01,2013-05-15 11:07:00,
2013-05-15 06:12:00,65.6,56.0,29.89,SSW,211,0.0,1.0,71,0.00,,---,0.00,VWS V14.01,2013-05-15 11:12:00,
2013-05-15 06:17:00,65.8,56.2,29.90,SSW,212,0.0,1.0,71,0.00,,---,0.00,VWS V14.01,2013-05-15 11:17:00,
2013-05-15 06:22:00,65.9,56.2,29.90,SSW,212,0.0,1.0,71,0.00,,---,0.00,VWS V14.01,2013-05-15 11:22:00,
2013-05-15 06:27:00,66.1,56.4,29.90,SSW,211,0.0,1.0,71,0.00,,---,0.00,VWS V14.01,2013-05-15 11:27:00,
2013-05-15 06:32:00,66.3,56.2,29.90,SSW,196,0.0,0.0,70,0.00,,---,0.00,VWS V14.01,2013-05-15 11:32:00,
2013-05-15 06:37:00,66.6,56.5,29.90,South,188,0.0,1.0,70,0.00,,---,0.00,VWS V14.01,2013-05-15 11:37:00,
2013-05-15 06:43:00,66.9,56.4,29.90,SSW,207,0.0,1.0,69,0.00,,---,0.00,VWS V14.01,2013-05-15 11:43:00,
2013-05-15 06:48:00,67.2,56.7,29.90,SSW,192,0.0,1.0,69,0.00,,---,0.00,VWS V14.01,2013-05-15 11:48:00,
2013-05-15 06:53:00,67.5,57.0,29.90,SSW,195,1.0,1.0,69,0.00,,---,0.00,VWS V14.01,2013-05-15 11:53:00,
2013-05-15 06:58:00,67.9,57.0,29.90,SSW,201,0.0,1.0,68,0.00,,---,0.00,VWS V14.01,2013-05-15 11:58:00,
2013-05-15 07:03:00,68.1,57.2,29.90,SSW,207,0.0,1.0,68,0.00,,---,0.00,VWS V14.01,2013-05-15 12:03:00,
2013-05-15 07:08:00,68.5,57.1,29.90,East,92,1.0,2.0,67,0.00,,---,0.00,VWS V14.01,2013-05-15 12:08:00,
2013-05-15 07:13:00,68.9,57.5,29.90,SSW,211,0.0,2.0,67,0.00,,---,0.00,VWS V14.01,2013-05-15 12:13:00,
2013-05-15 07:18:00,69.1,57.7,29.90,SW,236,0.0,2.0,67,0.00,,---,0.00,VWS V14.01,2013-05-15 12:18:00,
2013-05-15 07:23:00,69.4,58.0,29.90,SSW,196,0.0,2.0,67,0.00,,---,0.00,VWS V14.01,2013-05-15 12:23:00,
2013-05-15 07:28:00,69.7,57.8,29.90,SW,217,0.0,3.0,66,0.00,,---,0.00,VWS V14.01,2013-05-15 12:28:00,
2013-05-15 07:34:00,70.0,58.1,29.90,SSW,206,0.0,3.0,66,0.00,,---,0.00,VWS V14.01,2013-05-15 12:34:00,
2013-05-15 07:39:00,70.4,58.1,29.90,WSW,254,0.0,3.0,65,0.00,,---,0.00,VWS V14.01,2013-05-15 12:39:00,
2013-05-15 07:44:00,70.7,58.8,29.90,SW,229,0.0,3.0,66,0.00,,---,0.00,VWS V14.01,2013-05-15 12:44:00,
2013-05-15 07:49:00,71.2,58.4,29.91,WSW,249,0.0,3.0,64,0.00,,---,0.00,VWS V14.01,2013-05-15 12:49:00,
2013-05-15 07:54:00,71.5,58.7,29.91,SSW,200,2.0,3.0,64,0.00,,---,0.00,VWS V14.01,2013-05-15 12:54:00,
2013-05-15 07:59:00,71.9,58.6,29.91,SW,223,0.0,5.0,63,0.00,,---,0.00,VWS V14.01,2013-05-15 12:59:00,
2013-05-15 08:04:00,72.4,59.1,29.91,SW,223,0.0,3.0,63,0.00,,---,0.00,VWS V14.01,2013-05-15 13:04:00,
2013-05-15 08:10:00,72.9,59.1,29.91,WNW,288,0.0,3.0,62,0.00,,---,0.00,VWS V14.01,2013-05-15 13:10:00,
2013-05-15 08:15:00,73.3,59.5,29.91,SW,221,1.0,4.0,62,0.00,,---,0.00,VWS V14.01,2013-05-15 13:15:00,
2013-05-15 08:20:00,73.6,58.9,29.91,SW,223,0.0,5.0,60,0.00,,---,0.00,VWS V14.01,2013-05-15 13:20:00,
2013-05-15 08:25:00,73.9,59.2,29.91,SW,235,1.0,6.0,60,0.00,,---,0.00,VWS V14.01,2013-05-15 13:25:00,
2013-05-15 08:30:00,74.2,59.0,29.91,SW,232,0.0,6.0,59,0.00,,---,0.00,VWS V14.01,2013-05-15 13:30:00,
2013-05-15 08:35:00,74.6,59.3,29.91,West,274,7.0,7.0,59,0.00,,---,0.00,VWS V14.01,2013-05-15 13:35:00,
2013-05-15 08:40:00,75.0,59.7,29.91,SW,236,0.0,7.0,59,0.00,,---,0.00,VWS V14.01,2013-05-15 13:40:00,
2013-05-15 08:45:00,75.3,59.5,29.91,WSW,244,0.0,7.0,58,0.00,,---,0.00,VWS V14.01,2013-05-15 13:45:00,
2013-05-15 08:50:00,75.5,59.2,29.91,WSW,248,0.0,9.0,57,0.00,,---,0.00,VWS V14.01,2013-05-15 13:50:00,
2013-05-15 08:56:00,75.7,59.4,29.91,SSW,203,0.0,9.0,57,0.00,,---,0.00,VWS V14.01,2013-05-15 13:56:00,
2013-05-15 09:01:00,76.2,59.9,29.91,SW,236,4.0,9.0,57,0.00,,---,0.00,VWS V14.01,2013-05-15 14:01:00,
2013-05-15 09:06:00,76.5,60.2,29.91,WSW,243,1.0,6.0,57,0.00,,---,0.00,VWS V14.01,2013-05-15 14:06:00,
2013-05-15 09:11:00,76.8,60.4,29.91,West,268,0.0,6.0,57,0.00,,---,0.00,VWS V14.01,2013-05-15 14:11:00,
2013-05-15 09:16:00,77.1,60.2,29.92,SW,229,1.0,9.0,56,0.00,,---,0.00,VWS V14.01,2013-05-15 14:16:00,
2013-05-15 09:21:00,77.2,59.8,29.92,SW,233,1.0,9.0,55,0.00,,---,0.00,VWS V14.01,2013-05-15 14:21:00,
2013-05-15 09:26:00,77.3,60.4,29.92,SW,219,0.0,9.0,56,0.00,,---,0.00,VWS V14.01,2013-05-15 14:26:00,
2013-05-15 09:31:00,77.7,60.8,29.91,West,261,0.0,9.0,56,0.00,,---,0.00,VWS V14.01,2013-05-15 14:31:00,
2013-05-15 09:36:00,78.1,61.1,29.91,SW,234,3.0,5.0,56,0.00,,---,0.00,VWS V14.01,2013-05-15 14:36:00,
2013-05-15 09:41:00,78.3,60.8,29.91,SW,225,0.0,5.0,55,0.00,,---,0.00,VWS V14.01,2013-05-15 14:41:00,
2013-05-15 09:46:00,78.4,60.9,29.91,WSW,250,1.0,5.0,55,0.00,,---,0.00,VWS V14.01,2013-05-15 14:46:00,
2013-05-15 09:51:00,78.7,61.2,29.91,SSW,202,1.0,5.0,55,0.00,,---,0.00,VWS V14.01,2013-05-15 14:51:00,
2013-05-15 09:57:00,79.0,61.0,29.91,SW,234,0.0,5.0,54,0.00,,---,0.00,VWS V14.01,2013-05-15 14:57:00,
2013-05-15 10:02:00,79.3,61.2,29.91,West,261,0.0,5.0,54,0.00,,---,0.00,VWS V14.01,2013-05-15 15:02:00,
2013-05-15 10:07:00,79.4,60.8,29.91,WSW,252,2.0,6.0,53,0.00,,---,0.00,VWS V14.01,2013-05-15 15:07:00,
2013-05-15 10:12:00,79.4,61.3,29.91,South,185,1.0,6.0,54,0.00,,---,0.00,VWS V14.01,2013-05-15 15:12:00,
2013-05-15 10:17:00,79.6,61.0,29.90,SSW,208,0.0,7.0,53,0.00,,---,0.00,VWS V14.01,2013-05-15 15:17:00,
2013-05-15 10:22:00,79.7,61.1,29.90,SSW,197,3.0,7.0,53,0.00,,---,0.00,VWS V14.01,2013-05-15 15:22:00,
2013-05-15 10:27:00,79.8,61.2,29.90,SSW,194,0.0,10.0,53,0.00,,---,0.00,VWS V14.01,2013-05-15 15:27:00,
2013-05-15 10:32:00,79.9,61.3,29.91,WSW,258,0.0,1.0,53,0.00,,---,0.00,VWS V14.01,2013-05-15 15:32:00,
2013-05-15 10:37:00,80.1,60.9,29.91,WSW,238,0.0,9.0,52,0.00,,---,0.00,VWS V14.01,2013-05-15 15:37:00,
2013-05-15 10:42:00,80.4,61.2,29.91,WSW,246,1.0,9.0,52,0.00,,---,0.00,VWS V14.01,2013-05-15 15:42:00,
2013-05-15 10:47:00,80.8,61.0,29.90,SW,224,0.0,9.0,51,0.00,,---,0.00,VWS V14.01,2013-05-15 15:47:00,
2013-05-15 10:52:00,81.4,62.1,29.90,SSW,201,1.0,9.0,52,0.00,,---,0.00,VWS V14.01,2013-05-15 15:52:00,
2013-05-15 10:58:00,81.7,61.3,29.90,SW,236,4.0,11.0,50,0.00,,---,0.00,VWS V14.01,2013-05-15 15:58:00,
2013-05-15 11:03:00,81.2,61.4,29.90,West,271,6.0,6.0,51,0.00,,---,0.00,VWS V14.01,2013-05-15 16:03:00,
2013-05-15 11:08:00,81.2,60.8,29.90,SW,223,0.0,9.0,50,0.00,,---,0.00,VWS V14.01,2013-05-15 16:08:00,
2013-05-15 11:13:00,81.5,60.5,29.90,SW,231,3.0,9.0,49,0.00,,---,0.00,VWS V14.01,2013-05-15 16:13:00,
2013-05-15 11:18:00,81.7,60.7,29.90,SW,231,2.0,9.0,49,0.00,,---,0.00,VWS V14.01,2013-05-15 16:18:00,
2013-05-15 11:23:00,81.5,60.5,29.90,SW,230,6.0,10.0,49,0.00,,---,0.00,VWS V14.01,2013-05-15 16:23:00,
2013-05-15 11:28:00,81.7,61.3,29.90,WSW,239,1.0,11.0,50,0.00,,---,0.00,VWS V14.01,2013-05-15 16:28:00,
2013-05-15 11:33:00,82.1,60.5,29.90,SSW,196,1.0,4.0,48,0.00,,---,0.00,VWS V14.01,2013-05-15 16:33:00,
2013-05-15 11:38:00,82.1,60.5,29.90,WNW,299,9.0,9.0,48,0.00,,---,0.00,VWS V14.01,2013-05-15 16:38:00,
2013-05-15 11:43:00,81.8,59.6,29.90,SW,232,4.0,12.0,47,0.00,,---,0.00,VWS V14.01,2013-05-15 16:43:00,
2013-05-15 11:48:00,82.0,59.8,29.90,WSW,246,1.0,12.0,47,0.00,,---,0.00,VWS V14.01,2013-05-15 16:48:00,
2013-05-15 11:53:00,82.7,61.0,29.90,WNW,302,0.0,12.0,48,0.00,,---,0.00,VWS V14.01,2013-05-15 16:53:00,
2013-05-15 11:58:00,82.9,60.0,29.90,SSW,199,2.0,12.0,46,0.00,,---,0.00,VWS V14.01,2013-05-15 16:58:00,
2013-05-15 12:03:00,83.0,59.5,29.89,SW,233,1.0,6.0,45,0.00,,---,0.00,VWS V14.01,2013-05-15 17:03:00,
2013-05-15 12:08:00,83.2,60.3,29.89,South,172,0.0,6.0,46,0.00,,---,0.00,VWS V14.01,2013-05-15 17:08:00,
2013-05-15 12:13:00,83.6,60.0,29.89,ESE,121,6.0,6.0,45,0.00,,---,0.00,VWS V14.01,2013-05-15 17:13:00,
2013-05-15 12:18:00,84.0,59.8,29.88,South,179,3.0,9.0,44,0.00,,---,0.00,VWS V14.01,2013-05-15 17:18:00,
2013-05-15 12:23:00,84.1,59.2,29.88,WNW,292,2.0,9.0,43,0.00,,---,0.00,VWS V14.01,2013-05-15 17:23:00,
2013-05-15 12:28:00,83.8,60.2,29.88,West,269,0.0,9.0,45,0.00,,---,0.00,VWS V14.01,2013-05-15 17:28:00,
2013-05-15 12:33:00,84.0,60.4,29.88,SW,225,3.0,8.0,45,0.00,,---,0.00,VWS V14.01,2013-05-15 17:33:00,
2013-05-15 12:38:00,84.3,60.0,29.88,WSW,237,0.0,8.0,44,0.00,,---,0.00,VWS V14.01,2013-05-15 17:38:00,
2013-05-15 12:44:00,85.0,60.0,29.88,SSE,167,0.0,8.0,43,0.00,,---,0.00,VWS V14.01,2013-05-15 17:44:00,
2013-05-15 12:49:00,85.2,60.2,29.87,West,275,4.0,11.0,43,0.00,,---,0.00,VWS V14.01,2013-05-15 17:49:00,
2013-05-15 12:54:00,85.1,58.8,29.87,WSW,239,1.0,11.0,41,0.00,,---,0.00,VWS V14.01,2013-05-15 17:54:00,
2013-05-15 12:59:00,84.9,59.3,29.87,SW,217,0.0,11.0,42,0.00,,---,0.00,VWS V14.01,2013-05-15 17:59:00,
2013-05-15 13:04:00,85.0,60.0,29.87,SW,227,0.0,1.0,43,0.00,,---,0.00,VWS V14.01,2013-05-15 18:04:00,
2013-05-15 13:09:00,85.4,59.0,29.87,SW,228,0.0,4.0,41,0.00,,---,0.00,VWS V14.01,2013-05-15 18:09:00,
2013-05-15 13:14:00,85.2,58.2,29.87,South,190,2.0,11.0,40,0.00,,---,0.00,VWS V14.01,2013-05-15 18:14:00,
2013-05-15 13:19:00,85.1,58.1,29.86,SSW,213,2.0,12.0,40,0.00,,---,0.00,VWS V14.01,2013-05-15 18:19:00,
2013-05-15 13:24:00,85.0,58.7,29.86,WSW,243,5.0,12.0,41,0.00,,---,0.00,VWS V14.01,2013-05-15 18:24:00,
2013-05-15 13:29:00,85.3,59.0,29.86,West,260,0.0,12.0,41,0.00,,---,0.00,VWS V14.01,2013-05-15 18:29:00,
2013-05-15 13:34:00,86.1,59.7,29.85,SSW,213,1.0,3.0,41,0.00,,---,0.00,VWS V14.01,2013-05-15 18:34:00,
2013-05-15 13:40:00,86.4,59.2,29.85,WSW,250,1.0,6.0,40,0.00,,---,0.00,VWS V14.01,2013-05-15 18:40:00,
2013-05-15 13:45:00,86.3,59.2,29.85,SW,217,0.0,6.0,40,0.00,,---,0.00,VWS V14.01,2013-05-15 18:45:00,
2013-05-15 13:50:00,86.3,59.8,29.85,SSW,209,4.0,7.0,41,0.00,,---,0.00,VWS V14.01,2013-05-15 18:50:00,
2013-05-15 13:55:00,86.3,59.8,29.85,South,180,0.0,7.0,41,0.00,,---,0.00,VWS V14.01,2013-05-15 18:55:00,
2013-05-15 14:00:00,86.3,59.8,29.85,SSE,150,0.0,7.0,41,0.00,,---,0.00,VWS V14.01,2013-05-15 19:00:00,
2013-05-15 14:05:00,86.1,59.7,29.85,NE,51,0.0,7.0,41,0.00,,---,0.00,VWS V14.01,2013-05-15 19:05:00,
2013-05-15 14:10:00,85.9,60.8,29.85,SW,216,2.0,7.0,43,0.00,,---,0.00,VWS V14.01,2013-05-15 19:10:00,
2013-05-15 14:15:00,85.6,62.5,29.85,SW,217,1.0,10.0,46,0.00,,---,0.00,VWS V14.01,2013-05-15 19:15:00,
2013-05-15 14:20:00,85.9,62.1,29.84,SW,219,2.0,10.0,45,0.00,,---,0.00,VWS V14.01,2013-05-15 19:20:00,
2013-05-15 14:25:00,85.8,62.0,29.84,SW,223,2.0,10.0,45,0.00,,---,0.00,VWS V14.01,2013-05-15 19:25:00,
2013-05-15 14:30:00,85.9,61.5,29.84,West,270,5.0,10.0,44,0.00,,---,0.00,VWS V14.01,2013-05-15 19:30:00,
2013-05-15 14:35:00,85.9,64.0,29.84,SW,234,2.0,6.0,48,0.00,,---,0.00,VWS V14.01,2013-05-15 19:35:00,
2013-05-15 14:40:00,85.9,63.3,29.84,West,261,4.0,7.0,47,0.00,,---,0.00,VWS V14.01,2013-05-15 19:40:00,
2013-05-15 14:45:00,85.6,62.5,29.84,SW,235,3.0,14.0,46,0.00,,---,0.00,VWS V14.01,2013-05-15 19:45:00,
2013-05-15 14:50:00,85.6,63.7,29.83,WSW,254,1.0,14.0,48,0.00,,---,0.00,VWS V14.01,2013-05-15 19:50:00,
2013-05-15 14:55:00,85.9,62.7,29.83,WSW,240,0.0,14.0,46,0.00,,---,0.00,VWS V14.01,2013-05-15 19:55:00,
2013-05-15 15:01:00,86.1,63.5,29.83,SSW,207,3.0,14.0,47,0.00,,---,0.00,VWS V14.01,2013-05-15 20:01:00,
2013-05-15 15:06:00,85.7,61.9,29.83,SSW,196,1.0,11.0,45,0.00,,---,0.00,VWS V14.01,2013-05-15 20:06:00,
2013-05-15 15:11:00,86.1,61.7,29.83,SSW,198,5.0,11.0,44,0.00,,---,0.00,VWS V14.01,2013-05-15 20:11:00,
2013-05-15 15:16:00,86.3,63.1,29.82,South,174,2.0,13.0,46,0.00,,---,0.00,VWS V14.01,2013-05-15 20:16:00,
2013-05-15 15:21:00,86.1,62.3,29.82,South,174,1.0,13.0,45,0.00,,---,0.00,VWS V14.01,2013-05-15 20:21:00,
2013-05-15 15:26:00,86.0,62.2,29.82,WSW,248,2.0,13.0,45,0.00,,---,0.00,VWS V14.01,2013-05-15 20:26:00,
2013-05-15 15:32:00,86.0,63.4,29.82,WSW,241,0.0,13.0,47,0.00,,---,0.00,VWS V14.01,2013-05-15 20:32:00,
2013-05-15 15:37:00,86.0,62.8,29.82,South,188,6.0,10.0,46,0.00,,---,0.00,VWS V14.01,2013-05-15 20:37:00,
2013-05-15 15:42:00,85.9,62.7,29.82,SSW,201,1.0,11.0,46,0.00,,---,0.00,VWS V14.01,2013-05-15 20:42:00,
2013-05-15 15:47:00,85.6,61.8,29.82,South,178,3.0,11.0,45,0.00,,---,0.00,VWS V14.01,2013-05-15 20:47:00,
2013-05-15 15:52:00,85.6,62.5,29.82,South,185,3.0,11.0,46,0.00,,---,0.00,VWS V14.01,2013-05-15 20:52:00,
2013-05-15 15:57:00,85.6,63.1,29.82,South,188,3.0,11.0,47,0.00,,---,0.00,VWS V14.01,2013-05-15 20:57:00,
2013-05-15 16:02:00,85.6,62.5,29.81,WSW,246,2.0,2.0,46,0.00,,---,0.00,VWS V14.01,2013-05-15 21:02:00,
2013-05-15 16:07:00,85.6,62.5,29.81,WSW,247,3.0,10.0,46,0.00,,---,0.00,VWS V14.01,2013-05-15 21:07:00,
2013-05-15 16:12:00,85.2,62.7,29.81,SSW,205,4.0,10.0,47,0.00,,---,0.00,VWS V14.01,2013-05-15 21:12:00,
2013-05-15 16:18:00,85.0,63.1,29.81,SW,219,4.0,10.0,48,0.00,,---,0.00,VWS V14.01,2013-05-15 21:18:00,
2013-05-15 16:23:00,84.9,62.4,29.81,SSE,167,6.0,10.0,47,0.00,,---,0.00,VWS V14.01,2013-05-15 21:23:00,
2013-05-15 16:28:00,84.7,61.7,29.81,WSW,248,0.0,10.0,46,0.00,,---,0.00,VWS V14.01,2013-05-15 21:28:00,
2013-05-15 16:33:00,84.5,62.1,29.80,SW,231,0.0,5.0,47,0.00,,---,0.00,VWS V14.01,2013-05-15 21:33:00,
2013-05-15 16:38:00,84.3,61.9,29.80,SSW,211,0.0,6.0,47,0.00,,---,0.00,VWS V14.01,2013-05-15 21:38:00,
2013-05-15 16:43:00,83.9,62.1,29.80,SSW,209,0.0,9.0,48,0.00,,---,0.00,VWS V14.01,2013-05-15 21:43:00,
2013-05-15 16:48:00,83.4,61.7,29.80,SW,236,2.0,11.0,48,0.00,,---,0.00,VWS V14.01,2013-05-15 21:48:00,
2013-05-15 16:54:00,82.7,61.6,29.80,SSW,211,2.0,11.0,49,0.00,,---,0.00,VWS V14.01,2013-05-15 21:54:00,
2013-05-15 16:59:00,82.4,61.9,29.80,SSW,206,1.0,11.0,50,0.00,,---,0.00,VWS V14.01,2013-05-15 21:59:00,
2013-05-15 17:04:00,82.5,62.0,29.80,SW,233,0.0,2.0,50,0.00,,---,0.00,VWS V14.01,2013-05-15 22:04:00,
2013-05-15 17:09:00,82.7,62.8,29.80,SSW,201,1.0,3.0,51,0.00,,---,0.00,VWS V14.01,2013-05-15 22:09:00,
2013-05-15 17:14:00,82.6,62.1,29.80,NNW,338,0.0,4.0,50,0.00,,---,0.00,VWS V14.01,2013-05-15 22:14:00,
2013-05-15 17:19:00,82.4,61.3,29.81,SSE,160,1.0,5.0,49,0.00,,---,0.00,VWS V14.01,2013-05-15 22:19:00,
2013-05-15 17:24:00,82.0,60.4,29.81,South,190,6.0,6.0,48,0.00,,---,0.00,VWS V14.01,2013-05-15 22:24:00,
2013-05-15 17:29:00,81.5,61.1,29.81,West,259,0.0,9.0,50,0.00,,---,0.00,VWS V14.01,2013-05-15 22:29:00,
2013-05-15 17:34:00,81.2,60.8,29.80,SSW,208,3.0,8.0,50,0.00,,---,0.00,VWS V14.01,2013-05-15 22:34:00,
2013-05-15 17:39:00,80.9,61.6,29.80,SSW,192,0.0,8.0,52,0.00,,---,0.00,VWS V14.01,2013-05-15 22:39:00,
2013-05-15 17:44:00,80.8,61.0,29.80,South,180,1.0,8.0,51,0.00,,---,0.00,VWS V14.01,2013-05-15 22:44:00,
2013-05-15 17:50:00,80.7,60.9,29.81,SE,136,0.0,8.0,51,0.00,,---,0.00,VWS V14.01,2013-05-15 22:50:00,
2013-05-15 17:55:00,80.6,61.9,29.81,SE,135,0.0,8.0,53,0.00,,---,0.00,VWS V14.01,2013-05-15 22:55:00,
2013-05-15 18:00:00,80.7,61.5,29.81,ESE,115,0.0,8.0,52,0.00,,---,0.00,VWS V14.01,2013-05-15 23:00:00,
2013-05-15 18:05:00,80.7,61.5,29.80,SSE,157,0.0,2.0,52,0.00,,---,0.00,VWS V14.01,2013-05-15 23:05:00,
2013-05-15 18:10:00,80.6,61.4,29.80,SW,219,0.0,2.0,52,0.00,,---,0.00,VWS V14.01,2013-05-15 23:10:00,
2013-05-15 18:15:00,80.3,60.5,29.80,SSW,202,0.0,3.0,51,0.00,,---,0.00,VWS V14.01,2013-05-15 23:15:00,
2013-05-15 18:20:00,80.0,59.7,29.80,SSW,200,0.0,3.0,50,0.00,,---,0.00,VWS V14.01,2013-05-15 23:20:00,
2013-05-15 18:25:00,79.7,59.4,29.80,SSW,201,0.0,3.0,50,0.00,,---,0.00,VWS V14.01,2013-05-15 23:25:00,
2013-05-15 18:30:00,79.4,59.2,29.80,SSW,200,1.0,3.0,50,0.00,,---,0.00,VWS V14.01,2013-05-15 23:30:00,
2013-05-15 18:36:00,79.1,59.4,29.80,South,184,0.0,1.0,51,0.00,,---,0.00,VWS V14.01,2013-05-15 23:36:00,
2013-05-15 18:41:00,78.8,59.2,29.80,South,184,0.0,1.0,51,0.00,,---,0.00,VWS V14.01,2013-05-15 23:41:00,
2013-05-15 18:46:00,78.6,60.1,29.80,South,184,0.0,1.0,53,0.00,,---,0.00,VWS V14.01,2013-05-15 23:46:00,
2013-05-15 18:51:00,78.2,59.7,29.80,South,184,0.0,1.0,53,0.00,,---,0.00,VWS V14.01,2013-05-15 23:51:00,
2013-05-15 18:56:00,78.0,59.5,29.80,South,183,0.0,1.0,53,0.00,,---,0.00,VWS V14.01,2013-05-15 23:56:00,
2013-05-15 19:01:00,77.8,59.3,29.80,SSE,150,0.0,2.0,53,0.00,,---,0.00,VWS V14.01,2013-05-16 00:01:00,
2013-05-15 19:07:00,77.5,59.0,29.80,South,170,0.0,2.0,53,0.00,,---,0.00,VWS V14.01,2013-05-16 00:07:00,
2013-05-15 19:12:00,77.2,58.8,29.80,South,170,0.0,2.0,53,0.00,,---,0.00,VWS V14.01,2013-05-16 00:12:00,
2013-05-15 19:17:00,77.0,58.6,29.80,South,170,0.0,2.0,53,0.00,,---,0.00,VWS V14.01,2013-05-16 00:17:00,
2013-05-15 19:22:00,76.8,58.9,29.80,SSE,161,0.0,3.0,54,0.00,,---,0.00,VWS V14.01,2013-05-16 00:22:00,
2013-05-15 19:27:00,76.4,58.0,29.80,SSE,161,0.0,3.0,53,0.00,,---,0.00,VWS V14.01,2013-05-16 00:27:00,
2013-05-15 19:32:00,76.1,57.2,29.80,SSE,161,0.0,0.0,52,0.00,,---,0.00,VWS V14.01,2013-05-16 00:32:00,
2013-05-15 19:37:00,75.7,56.8,29.80,SSE,161,0.0,1.0,52,0.00,,---,0.00,VWS V14.01,2013-05-16 00:37:00,
2013-05-15 19:42:00,75.3,56.5,29.80,SSE,163,0.0,1.0,52,0.00,,---,0.00,VWS V14.01,2013-05-16 00:42:00,
2013-05-15 19:47:00,74.9,56.6,29.80,SSE,162,0.0,1.0,53,0.00,,---,0.00,VWS V14.01,2013-05-16 00:47:00,
2013-05-15 19:52:00,74.6,56.4,29.80,SSE,161,0.0,1.0,53,0.00,,---,0.00,VWS V14.01,2013-05-16 00:52:00,
2013-05-15 19:57:00,74.2,56.5,29.80,SSE,162,0.0,1.0,54,0.00,,---,0.00,VWS V14.01,2013-05-16 00:57:00,
2013-05-15 20:02:00,73.8,56.6,29.80,SSE,162,0.0,0.0,55,0.00,,---,0.00,VWS V14.01,2013-05-16 01:02:00,
2013-05-15 20:07:00,73.4,56.8,29.80,SSE,162,0.0,0.0,56,0.00,,---,0.00,VWS V14.01,2013-05-16 01:07:00,
2013-05-15 20:13:00,73.0,56.9,29.80,SSE,162,0.0,0.0,57,0.00,,---,0.00,VWS V14.01,2013-05-16 01:13:00,
2013-05-15 20:18:00,72.4,57.3,29.81,SSE,162,0.0,0.0,59,0.00,,---,0.00,VWS V14.01,2013-05-16 01:18:00,
2013-05-15 20:23:00,71.8,58.1,29.81,SSE,162,0.0,0.0,62,0.00,,---,0.00,VWS V14.01,2013-05-16 01:23:00,
2013-05-15 20:28:00,71.1,57.0,29.81,SSE,162,0.0,0.0,61,0.00,,---,0.00,VWS V14.01,2013-05-16 01:28:00,
2013-05-15 20:33:00,70.5,56.9,29.81,SSE,162,0.0,0.0,62,0.00,,---,0.00,VWS V14.01,2013-05-16 01:33:00,
2013-05-15 20:38:00,70.1,56.0,29.81,SSE,162,0.0,0.0,61,0.00,,---,0.00,VWS V14.01,2013-05-16 01:38:00,
2013-05-15 20:43:00,69.7,56.6,29.81,SSE,162,0.0,0.0,63,0.00,,---,0.00,VWS V14.01,2013-05-16 01:43:00,
2013-05-15 20:48:00,69.3,56.6,29.81,SSE,162,0.0,0.0,64,0.00,,---,0.00,VWS V14.01,2013-05-16 01:48:00,
2013-05-15 20:53:00,68.8,57.4,29.81,SSE,162,0.0,0.0,67,0.00,,---,0.00,VWS V14.01,2013-05-16 01:53:00,
2013-05-15 20:58:00,68.3,56.5,29.81,SSE,162,0.0,0.0,66,0.00,,---,0.00,VWS V14.01,2013-05-16 01:58:00,
2013-05-15 21:03:00,67.9,57.0,29.81,SSE,162,0.0,0.0,68,0.00,,---,0.00,VWS V14.01,2013-05-16 02:03:00,
2013-05-15 21:08:00,67.6,56.7,29.81,SSE,162,0.0,1.0,68,0.00,,---,0.00,VWS V14.01,2013-05-16 02:08:00,
2013-05-15 21:13:00,67.5,55.8,29.81,SSE,162,0.0,1.0,66,0.00,,---,0.00,VWS V14.01,2013-05-16 02:13:00,
2013-05-15 21:18:00,67.6,55.8,29.82,SSE,162,0.0,1.0,66,0.00,,---,0.00,VWS V14.01,2013-05-16 02:18:00,
2013-05-15 21:24:00,67.7,56.4,29.82,SSE,162,0.0,1.0,67,0.00,,---,0.00,VWS V14.01,2013-05-16 02:24:00,
2013-05-15 21:29:00,67.7,56.8,29.82,SSE,162,0.0,1.0,68,0.00,,---,0.00,VWS V14.01,2013-05-16 02:29:00,
2013-05-15 21:34:00,67.6,56.3,29.82,SSE,162,0.0,0.0,67,0.00,,---,0.00,VWS V14.01,2013-05-16 02:34:00,
2013-05-15 21:39:00,67.5,55.8,29.82,SSE,162,0.0,0.0,66,0.00,,---,0.00,VWS V14.01,2013-05-16 02:39:00,
2013-05-15 21:44:00,67.5,55.3,29.82,SSE,162,0.0,1.0,65,0.00,,---,0.00,VWS V14.01,2013-05-16 02:44:00,
2013-05-15 21:49:00,67.6,55.8,29.82,SSE,162,0.0,1.0,66,0.00,,---,0.00,VWS V14.01,2013-05-16 02:49:00,
2013-05-15 21:54:00,67.7,56.0,29.82,SSE,162,0.0,1.0,66,0.00,,---,0.00,VWS V14.01,2013-05-16 02:54:00,
2013-05-15 21:59:00,67.8,55.6,29.82,SSE,162,0.0,1.0,65,0.00,,---,0.00,VWS V14.01,2013-05-16 02:59:00,
2013-05-15 22:04:00,67.9,55.7,29.82,SSE,162,0.0,1.0,65,0.00,,---,0.00,VWS V14.01,2013-05-16 03:04:00,
2013-05-15 22:09:00,68.0,55.4,29.82,SSE,162,0.0,1.0,64,0.00,,---,0.00,VWS V14.01,2013-05-16 03:09:00,
2013-05-15 22:14:00,68.1,55.9,29.82,SSE,162,0.0,1.0,65,0.00,,---,0.00,VWS V14.01,2013-05-16 03:14:00,
2013-05-15 22:19:00,68.4,55.8,29.82,SSE,162,0.0,1.0,64,0.00,,---,0.00,VWS V14.01,2013-05-16 03:19:00,
2013-05-15 22:25:00,68.7,56.0,29.82,SSE,162,0.0,1.0,64,0.00,,---,0.00,VWS V14.01,2013-05-16 03:25:00,
2013-05-15 22:30:00,68.8,56.1,29.82,SSE,162,0.0,1.0,64,0.00,,---,0.00,VWS V14.01,2013-05-16 03:30:00,
2013-05-15 22:35:00,68.8,56.1,29.82,SSE,162,0.0,0.0,64,0.00,,---,0.00,VWS V14.01,2013-05-16 03:35:00,
2013-05-15 22:40:00,69.0,55.9,29.82,South,184,0.0,2.0,63,0.00,,---,0.00,VWS V14.01,2013-05-16 03:40:00,
2013-05-15 22:45:00,69.5,55.9,29.82,SSE,168,0.0,2.0,62,0.00,,---,0.00,VWS V14.01,2013-05-16 03:45:00,
2013-05-15 22:50:00,70.0,56.0,29.82,SSE,168,0.0,2.0,61,0.00,,---,0.00,VWS V14.01,2013-05-16 03:50:00,
2013-05-15 22:55:00,70.3,56.2,29.82,SSE,168,0.0,2.0,61,0.00,,---,0.00,VWS V14.01,2013-05-16 03:55:00,
2013-05-15 23:00:00,70.3,56.2,29.82,SE,146,0.0,2.0,61,0.00,,---,0.00,VWS V14.01,2013-05-16 04:00:00,
2013-05-15 23:01:00,70.3,56.2,29.82,SE,146,0.0,2.0,61,0.00,,---,0.00,VWS V14.01,2013-05-16 04:01:00,
2013-05-15 23:06:00,70.2,56.1,29.81,SSW,193,0.0,2.0,61,0.00,,---,0.00,VWS V14.01,2013-05-16 04:06:00,
2013-05-15 23:11:00,70.1,56.5,29.81,SE,143,0.0,2.0,62,0.00,,---,0.00,VWS V14.01,2013-05-16 04:11:00,
2013-05-15 23:16:00,69.8,56.2,29.81,South,177,0.0,3.0,62,0.00,,---,0.00,VWS V14.01,2013-05-16 04:16:00,
2013-05-15 23:21:00,69.6,56.5,29.81,South,177,0.0,3.0,63,0.00,,---,0.00,VWS V14.01,2013-05-16 04:21:00,
2013-05-15 23:26:00,69.4,56.3,29.81,South,175,0.0,3.0,63,0.00,,---,0.00,VWS V14.01,2013-05-16 04:26:00,
2013-05-15 23:31:00,69.2,56.5,29.81,SSE,168,0.0,3.0,64,0.00,,---,0.00,VWS V14.01,2013-05-16 04:31:00,
2013-05-15 23:36:00,68.9,56.7,29.81,ESE,115,0.0,2.0,65,0.00,,---,0.00,VWS V14.01,2013-05-16 04:36:00,
2013-05-15 23:41:00,68.7,56.5,29.81,SSE,167,0.0,2.0,65,0.00,,---,0.00,VWS V14.01,2013-05-16 04:41:00,
2013-05-15 23:46:00,68.6,56.8,29.81,SSE,167,0.0,2.0,66,0.00,,---,0.00,VWS V14.01,2013-05-16 04:46:00,
2013-05-15 23:51:00,68.6,56.8,29.81,SSE,168,0.0,2.0,66,0.00,,---,0.00,VWS V14.01,2013-05-16 04:51:00,
2013-05-15 23:56:00,68.5,56.7,29.81,South,171,0.0,3.0,66,0.00,,---,0.00,VWS V14.01,2013-05-16 04:56:00,